Total_Precipitation_Accumulation
0.00 0.01 0.01 0.01 0.02 0.03 0.09 0.13 0.18 0.21 0.27 0.24 0.23 0.26 0.37 0.48 0.65 1.20 0.72 0.36 0.22 0.12 0.09 0.09 0.09 0.08 0.09 0.11 0.13 0.13 0.13 0.13 0.13 0.13 0.14 0.14 0.14 0.14 0.14 0.14 0.16 0.22 0.26 0.25 0.23 0.24 0.25 0.22 0.17
0.01 0.01 0.02 0.02 0.03 0.07 0.14 0.14 0.17 0.21 0.25 0.26 0.24 0.26 0.32 0.40 0.32 0.28 0.26 0.25 0.23 0.13 0.09 0.07 0.09 0.08 0.09 0.10 0.12 0.15 0.15 0.14 0.14 0.15 0.15 0.15 0.14 0.14 0.15 0.16 0.19 0.26 0.31 0.31 0.30 0.28 0.25 0.21 0.17
0.01 0.01 0.01 0.02 0.03 0.07 0.18 0.21 0.23 0.23 0.25 0.25 0.32 0.38 0.42 0.49 0.43 0.34 0.30 0.29 0.27 0.16 0.11 0.09 0.09 0.08 0.09 0.09 0.11 0.16 0.18 0.16 0.15 0.15 0.15 0.16 0.16 0.15 0.17 0.21 0.22 0.24 0.29 0.29 0.23 0.20 0.20 0.21 0.18
0.00 0.01 0.01 0.02 0.05 0.07 0.14 0.23 0.29 0.26 0.28 0.29 0.35 0.50 0.48 0.49 0.46 0.42 0.37 0.38 0.30 0.22 0.15 0.10 0.11 0.11 0.12 0.12 0.14 0.18 0.18 0.18 0.18 0.19 0.21 0.21 0.20 0.20 0.22 0.27 0.28 0.28 0.30 0.28 0.25 0.23 0.22 0.23 0.20
0.00 0.01 0.02 0.04 0.04 0.08 0.14 0.23 0.37 0.38 0.37 0.36 0.43 0.67 0.80 0.73 0.70 0.62 0.41 0.39 0.38 0.29 0.21 0.14 0.14 0.16 0.18 0.21 0.23 0.26 0.26 0.25 0.27 0.29 0.30 0.28 0.27 0.27 0.28 0.31 0.34 0.32 0.33 0.32 0.31 0.30 0.28 0.26 0.23
0.00 0.00 0.02 0.06 0.05 0.08 0.15 0.25 0.31 0.35 0.32 0.30 0.48 0.88 1.28 1.10 0.85 0.92 0.78 0.53 0.46 0.35 0.27 0.23 0.20 0.23 0.29 0.31 0.33 0.36 0.34 0.32 0.33 0.36 0.37 0.33 0.29 0.28 0.29 0.31 0.33 0.36 0.41 0.40 0.34 0.29 0.26 0.24 0.24
0.00 0.00 0.02 0.06 0.09 0.11 0.18 0.25 0.33 0.30 0.27 0.41 0.72 1.09 1.42 1.30 1.04 1.04 1.02 0.75 0.65 0.53 0.40 0.34 0.28 0.29 0.37 0.44 0.41 0.40 0.37 0.36 0.36 0.42 0.45 0.41 0.34 0.30 0.31 0.36 0.38 0.39 0.39 0.35 0.31 0.27 0.25 0.24 0.25
0.01 0.00 0.01 0.04 0.10 0.14 0.18 0.26 0.31 0.27 0.36 0.53 0.84 1.06 1.34 1.37 1.15 0.97 0.93 0.87 0.80 0.80 0.65 0.55 0.50 0.47 0.48 0.49 0.48 0.44 0.41 0.42 0.42 0.43 0.44 0.43 0.36 0.34 0.37 0.39 0.42 0.38 0.37 0.37 0.37 0.37 0.36 0.34 0.31
0.01 0.01 0.02 0.04 0.10 0.19 0.22 0.24 0.24 0.26 0.36 0.57 0.71 0.75 1.05 1.18 1.07 1.05 1.02 0.93 0.89 0.88 0.93 0.91 0.74 0.68 0.69 0.62 0.53 0.55 0.49 0.47 0.45 0.43 0.42 0.43 0.49 0.58 0.58 0.50 0.51 0.50 0.51 0.53 0.53 0.51 0.50 0.46 0.43
0.01 0.02 0.03 0.06 0.10 0.17 0.23 0.25 0.22 0.26 0.30 0.50 0.74 0.77 0.81 1.01 1.16 1.24 1.26 1.16 1.09 1.08 1.15 1.19 1.12 0.99 0.93 0.87 0.90 0.89 0.78 0.68 0.58 0.65 0.62 0.62 0.88 0.98 0.85 0.90 0.84 0.79 0.76 0.70 0.69 0.67 0.63 0.59 0.56
0.02 0.04 0.06 0.09 0.09 0.12 0.19 0.21 0.18 0.28 0.42 0.50 0.81 1.15 1.03 1.16 1.47 1.74 1.57 1.50 1.52 1.45 1.23 1.14 1.25 1.26 1.34 1.43 1.27 1.25 1.26 1.18 1.04 1.16 1.09 1.11 1.29 1.20 1.19 1.30 1.17 1.04 0.97 0.94 1.02 0.90 0.73 0.69 0.75
0.02 0.03 0.06 0.09 0.06 0.08 0.12 0.19 0.27 0.36 0.60 0.70 0.92 1.18 1.47 1.46 1.70 1.79 1.80 1.82 1.74 1.78 1.59 1.37 1.30 1.28 1.43 1.61 1.53 1.48 1.46 1.43 1.35 1.39 1.26 1.43 1.61 1.70 1.72 1.83 1.65 1.56 1.49 1.51 1.47 1.37 1.15 1.03 1.00
0.01 0.02 0.04 0.05 0.05 0.05 0.11 0.21 0.28 0.32 0.34 0.55 0.77 1.00 1.42 1.44 1.47 1.74 1.98 2.24 2.27 2.14 1.99 1.80 1.56 1.48 1.57 1.76 1.78 1.74 1.76 1.70 1.81 1.94 1.74 1.74 1.78 1.88 2.18 2.16 2.26 1.92 1.91 1.98 1.91 1.71 1.63 1.48 1.33
0.01 0.01 0.02 0.04 0.04 0.06 0.11 0.17 0.22 0.21 0.23 0.35 0.49 0.71 0.99 1.18 1.44 1.88 2.23 2.48 2.82 2.64 2.31 2.11 2.00 1.81 1.75 1.79 1.90 1.94 1.89 2.01 2.11 2.27 2.15 2.16 2.23 2.37 2.71 2.78 2.67 2.37 2.36 2.57 2.61 2.40 2.19 1.99 1.89
0.01 0.01 0.02 0.03 0.04 0.05 0.09 0.18 0.21 0.22 0.24 0.29 0.39 0.58 0.81 1.22 1.51 2.03 2.46 2.73 3.08 2.82 2.72 2.55 2.44 2.37 2.14 2.06 2.21 2.30 2.17 2.15 2.21 2.43 2.55 2.56 2.62 2.88 2.92 3.13 3.05 2.88 2.83 2.83 2.80 2.98 2.97 2.54 2.25
0.03 0.03 0.03 0.05 0.05 0.05 0.07 0.21 0.24 0.22 0.24 0.31 0.44 0.65 0.87 1.20 1.53 1.77 2.07 2.41 2.92 3.01 2.81 2.77 2.51 2.43 2.56 2.54 2.70 2.72 2.75 2.82 2.71 2.77 3.02 3.08 3.12 3.22 3.23 3.15 3.12 3.07 3.08 3.32 3.38 3.32 3.28 3.09 2.78
0.05 0.03 0.03 0.05 0.05 0.05 0.06 0.18 0.28 0.21 0.23 0.34 0.48 0.76 1.11 1.18 1.39 1.47 1.73 2.01 2.42 2.51 2.61 2.76 2.73 2.63 2.63 2.79 3.11 3.26 3.41 3.59 3.74 3.74 3.93 3.86 3.67 3.61 3.65 3.62 3.67 3.54 3.58 3.56 3.41 3.68 3.60 3.44 3.13
0.02 0.03 0.03 0.04 0.04 0.05 0.05 0.14 0.30 0.34 0.37 0.46 0.51 0.67 0.98 1.09 1.43 1.64 1.74 1.84 2.22 2.39 2.55 2.76 2.95 3.08 3.01 3.06 3.26 3.67 3.88 4.04 4.41 4.44 4.41 4.46 4.47 4.35 4.31 4.20 4.18 4.09 4.00 3.87 3.79 3.79 3.57 3.41 3.16
0.01 0.03 0.03 0.04 0.04 0.05 0.10 0.19 0.28 0.35 0.42 0.56 0.71 0.77 0.82 0.98 1.40 1.81 2.00 2.11 2.43 2.64 2.82 2.82 2.98 3.27 3.50 3.90 3.88 4.06 4.49 4.85 5.00 5.11 5.05 4.93 4.80 4.76 4.60 4.48 4.50 4.32 4.15 3.95 3.82 3.74 3.62 3.31 3.10
0.01 0.01 0.03 0.05 0.06 0.08 0.15 0.25 0.32 0.37 0.43 0.56 0.75 0.82 0.78 0.98 1.30 1.76 2.00 2.34 2.57 2.69 2.94 3.08 3.18 3.57 4.06 4.62 5.15 5.54 5.87 5.88 5.98 5.95 5.80 5.48 5.26 5.09 4.88 4.85 4.72 4.46 4.27 4.04 3.85 3.74 3.63 3.33 3.19
0.01 0.02 0.03 0.05 0.08 0.11 0.19 0.36 0.44 0.49 0.57 0.63 0.75 0.81 0.89 1.09 1.40 1.64 1.91 2.23 2.51 2.72 2.99 3.17 3.45 4.03 4.84 5.35 5.82 6.38 6.69 6.43 6.17 5.89 5.79 5.68 5.59 5.46 5.27 5.16 4.87 4.61 4.32 4.00 3.74 3.58 3.48 3.37 3.27
0.02 0.02 0.03 0.05 0.07 0.16 0.20 0.43 0.66 0.72 0.80 0.77 0.89 1.02 1.16 1.28 1.44 1.65 1.87 2.15 2.46 2.81 2.94 3.13 3.67 4.36 5.01 5.55 6.16 6.75 7.03 7.10 6.91 6.35 5.85 5.42 5.12 4.87 4.74 4.68 4.48 4.23 3.93 3.70 3.44 3.30 3.20 3.29 3.14
0.02 0.01 0.02 0.05 0.08 0.14 0.18 0.39 0.82 1.05 1.13 1.10 1.17 1.21 1.24 1.27 1.39 1.56 1.76 1.97 2.13 2.46 2.92 3.26 3.82 4.48 5.11 5.82 6.54 6.97 7.23 7.26 6.90 6.10 5.31 4.78 4.45 4.15 3.90 3.83 3.73 3.55 3.33 3.12 3.03 3.00 2.90 2.86 2.75
0.01 0.02 0.03 0.07 0.12 0.20 0.19 0.38 0.95 1.32 1.53 1.50 1.40 1.40 1.38 1.30 1.28 1.33 1.54 1.71 2.01 2.34 2.72 3.21 3.54 4.13 4.80 5.38 5.94 6.12 6.29 6.25 5.85 5.41 4.93 4.51 3.98 3.49 3.12 2.96 2.87 2.74 2.61 2.57 2.56 2.57 2.50 2.46 2.44
0.02 0.04 0.15 0.27 0.32 0.32 0.23 0.48 1.03 1.35 1.36 1.35 1.36 1.43 1.40 1.23 1.25 1.47 1.74 1.70 1.95 2.25 2.63 3.05 3.44 3.83 4.34 4.86 5.34 5.57 5.71 5.60 5.12 4.64 4.20 3.76 3.25 2.86 2.55 2.38 2.32 2.23 2.17 2.15 2.21 2.24 2.17 2.11 2.13
0.03 0.08 0.24 0.41 0.46 0.48 0.45 0.79 1.21 1.23 1.14 1.10 1.09 1.15 1.27 1.30 1.34 1.44 1.58 1.64 1.86 2.09 2.36 2.76 3.10 3.47 3.71 3.94 4.29 4.53 4.66 4.53 4.18 3.69 3.21 2.89 2.61 2.32 2.13 1.99 1.90 1.82 1.73 1.71 1.79 1.87 1.90 1.85 1.90
0.05 0.08 0.15 0.18 0.25 0.47 0.82 1.12 1.46 1.41 1.28 1.20 1.08 1.08 1.19 1.17 1.18 1.28 1.42 1.53 1.70 2.00 2.36 2.64 2.77 2.98 3.18 3.38 3.43 3.43 3.53 3.42 3.15 2.84 2.53 2.24 1.98 1.74 1.62 1.54 1.48 1.42 1.39 1.43 1.52 1.59 1.55 1.54 1.61
0.06 0.08 0.11 0.19 0.45 0.67 0.96 1.43 1.77 1.88 1.77 1.63 1.34 1.22 1.16 1.19 1.19 1.20 1.28 1.41 1.52 1.61 1.95 2.27 2.34 2.46 2.56 2.63 2.66 2.60 2.64 2.52 2.43 2.26 2.02 1.76 1.60 1.43 1.33 1.26 1.23 1.20 1.18 1.20 1.21 1.28 1.30 1.26 1.30
0.08 0.10 0.13 0.21 0.32 0.64 1.05 1.63 1.84 2.12 2.20 2.04 1.70 1.52 1.47 1.42 1.34 1.29 1.29 1.29 1.39 1.49 1.63 1.89 2.09 2.11 2.16 2.28 2.24 2.11 2.14 2.13 2.08 1.96 1.80 1.66 1.60 1.48 1.33 1.20 1.20 1.17 1.12 1.07 1.07 1.08 1.10 1.14 1.18
0.10 0.13 0.22 0.39 0.42 0.47 0.92 1.81 2.11 2.24 2.19 1.94 1.74 1.59 1.53 1.45 1.30 1.25 1.20 1.13 1.19 1.34 1.45 1.57 1.78 1.84 1.85 1.91 1.96 2.00 1.99 1.92 1.84 1.66 1.52 1.40 1.27 1.17 1.09 1.03 1.04 1.02 0.97 0.96 0.93 0.87 0.87 0.90 0.95